Location: Asheville, NC
(35.6000°N, 82.5500°W)
Time: 22:56:23
(UTC-04:00)

KKS-1 - Pass Details

Date: 10 February 2018
Orbit: 637 x 651 km, 98.4° (Epoch: 20 May)

Event Time Altitude Azimuth Distance (km) Brightness Sun altitude
Rises 18:35:30 0° 3° (N) 2,969 ? -6.4°
Reaches altitude 10° 18:37:50 10° 355° (N) 2,056 ? -6.8°
Maximum altitude 18:41:57 37° 288° (WNW) 1,008 ? -7.7°
Drops below altitude 10° 18:46:03 10° 221° (SW) 2,046 ? -8.5°
Sets 18:48:22 0° 213° (SSW) 2,953 ? -8.9°
